GW2042 Weather Reports


time (UTC)temp
F
wind
direction
speed
knots
gust
knots
rain 1hr
in
rain 24hr
in
rain mn
in
humidity
%
barometer
mb
20260906223520 100 24 0.9 5.2 0.00 0.00 0.00 35 1012.0
20260906223049 99 108 1.7 5.2 0.00 0.00 0.00 36 1012.0
20260906222522 97 113 0.9 3.5 0.00 0.00 0.00 39 1012.1
20260906222019 96 51 0.0 1.7 0.00 0.00 0.00 39 1012.2
20260906221537 95 0 0.0 2.6 0.00 0.00 0.00 40 1012.2
20260906221020 96 46 0.0 2.6 0.00 0.00 0.00 38 1012.3
20260906220519 97 0 0.0 6.1 0.00 0.00 0.00 37 1012.3
20260906215517 101 140 1.7 8.7 0.00 0.00 0.00 34 1012.3
20260906215018 100 157 1.7 4.3 0.00 0.00 0.00 36 1012.3
20260906214539 101 138 1.7 5.2 0.00 0.00 0.00 34 1012.4
20260906214018 102 129 1.7 7.0 0.00 0.00 0.00 34 1012.5
20260906213520 101 57 0.9 7.0 0.00 0.00 0.00 33 1012.5
20260906213038 100 42 1.7 7.0 0.00 0.00 0.00 34 1012.6
20260906212526 101 89 1.7 7.0 0.00 0.00 0.00 35 1012.5
20260906212020 100 0 0.9 7.8 0.00 0.00 0.00 36 1012.6
20260906211538 100 137 1.7 7.8 0.00 0.00 0.00 36 1012.8
20260906211020 98 117 0.9 7.8 0.00 0.00 0.00 38 1012.9
20260906210524 97 0 0.0 12.2 0.00 0.00 0.00 38 1012.8
20260906210043 98 182 0.9 12.2 0.00 0.00 0.00 37 1012.9
20260906205518 100 0 0.9 7.8 0.00 0.00 0.00 35 1013.0
20260906205017 102 83 1.7 7.8 0.00 0.00 0.00 34 1013.1
20260906204539 102 56 0.9 7.0 0.00 0.00 0.00 34 1013.1
20260906204018 101 183 1.7 6.1 0.00 0.00 0.00 34 1013.0
20260906202520 101 144 1.7 8.7 0.00 0.00 0.00 35 1013.1
20260906202019 101 143 2.6 7.0 0.00 0.00 0.00 37 1013.3
20260906201556 99 87 0.9 7.0 0.00 0.00 0.00 37 1013.3
20260906201018 102 69 0.9 7.0 0.00 0.00 0.00 36 1013.4
20260906200524 101 0 1.7 8.7 0.00 0.00 0.00 36 1013.4
20260906200038 101 141 2.6 8.7 0.00 0.00 0.00 35 1013.6
20260906195518 102 69 4.3 8.7 0.00 0.00 0.00 34 1013.6
20260906195020 100 140 3.5 8.7 0.00 0.00 0.00 37 1013.6
20260906193518 100 176 3.5 14.8 0.00 0.00 0.00 36 1013.8
20260906193038 101 175 4.3 14.8 0.00 0.00 0.00 36 1013.8
20260906192519 100 172 1.7 5.2 0.00 0.00 0.00 38 1014.0
20260906192017 100 89 2.6 7.8 0.00 0.00 0.00 39 1013.9
20260906191539 99 148 3.5 7.8 0.00 0.00 0.00 39 1014.0
20260906191018 98 153 2.6 7.8 0.00 0.00 0.00 40 1014.2
20260906190518 99 277 2.6 6.1 0.00 0.00 0.00 39 1014.2
20260906190103 100 226 0.9 4.3 0.00 0.00 0.00 38 1014.3
20260906185518 97 0 0.9 7.0 0.00 0.00 0.00 41 1014.3
20260906183521 98 77 2.6 7.0 0.00 0.00 0.00 40 1014.5
20260906182519 96 0 0.0 9.6 0.00 0.00 0.00 42 1014.7
20260906182020 98 0 1.7 9.6 0.00 0.00 0.00 40 1014.8
20260906181541 98 134 1.7 7.8 0.00 0.00 0.00 40 1014.9
20260906181021 97 0 0.9 8.7 0.00 0.00 0.00 41 1014.8
20260906180520 98 134 2.6 8.7 0.00 0.00 0.00 41 1014.9
20260906180038 97 106 2.6 7.8 0.00 0.00 0.00 41 1015.0
20260906175520 97 76 0.9 7.8 0.00 0.00 0.00 42 1015.2
20260906175016 97 112 2.6 7.8 0.00 0.00 0.00 41 1015.2
20260906172018 96 355 0.9 6.1 0.00 0.00 0.00 44 1015.6
20260906171018 96 144 1.7 7.8 0.00 0.00 0.00 43 1015.7
20260906170520 96 0 1.7 7.8 0.00 0.00 0.00 42 1015.8
20260906170039 95 120 1.7 6.1 0.00 0.00 0.00 45 1015.9
20260906165520 94 57 0.9 6.1 0.00 0.00 0.00 46 1015.9
20260906165020 94 137 1.7 6.1 0.00 0.00 0.00 45 1016.1
20260906164540 93 140 1.7 5.2 0.00 0.00 0.00 47 1016.0
20260906164019 94 347 0.9 4.3 0.00 0.00 0.00 46 1016.1
20260906162020 93 131 2.6 7.0 0.00 0.00 0.00 47 1016.0
20260906161019 93 0 0.9 6.1 0.00 0.00 0.00 47 1016.0
20260906160520 92 93 0.9 6.1 0.00 0.00 0.00 49 1016.0
20260906160037 92 341 1.7 6.1 0.00 0.00 0.00 48 1016.1
20260906154538 91 334 0.9 3.5 0.00 0.00 0.00 52 1016.1
20260906153518 89 331 0.0 3.5 0.00 0.00 0.00 56 1016.0
20260906152521 88 227 0.9 3.5 0.00 0.00 0.00 57 1015.9
20260906152019 88 0 0.9 2.6 0.00 0.00 0.00 57 1016.0
20260906151539 87 290 0.0 4.3 0.00 0.00 0.00 59 1016.0
20260906151018 86 308 0.9 4.3 0.00 0.00 0.00 59 1016.0
20260906150518 86 292 0.0 3.5 0.00 0.00 0.00 60 1016.0
20260906150037 85 220 0.9 3.5 0.00 0.00 0.00 62 1016.0
20260906145521 85 240 0.9 3.5 0.00 0.00 0.00 62 1016.0
20260906142523 83 0 0.0 1.7 0.00 0.00 0.00 65 1015.9
20260906142019 83 145 0.0 1.7 0.00 0.00 0.00 67 1016.0
20260906141021 82 0 0.0 2.6 0.00 0.00 0.00 71 1016.0
20260906140521 81 0 0.0 2.6 0.00 0.00 0.00 71 1016.0
20260906140044 81 145 0.9 2.6 0.00 0.00 0.00 72 1016.0
20260906135518 80 0 0.0 3.5 0.00 0.00 0.00 73 1016.0
20260906135018 80 128 0.9 3.5 0.00 0.00 0.00 74 1016.0
20260906134017 79 0 0.0 2.6 0.00 0.00 0.00 76 1015.8
20260906132520 77 126 0.0 3.5 0.00 0.00 0.00 79 1015.8
20260906132019 76 144 0.0 2.6 0.00 0.00 0.00 80 1015.7
20260906131540 76 0 0.0 2.6 0.00 0.00 0.00 82 1015.7
20260906131020 75 0 0.0 2.6 0.00 0.00 0.00 82 1015.8
20260906130523 75 144 0.0 0.9 0.00 0.00 0.00 83 1015.8
20260906130046 74 0 0.0 0.9 0.00 0.00 0.00 84 1015.7
20260906125517 74 0 0.0 0.9 0.00 0.00 0.00 84 1015.5
20260906125020 74 144 0.0 0.9 0.00 0.00 0.00 84 1015.5
20260906124544 73 0 0.0 0.9 0.00 0.00 0.00 85 1015.5
20260906123042 73 0 0.0 0.0 0.00 0.00 0.00 85 1015.2
20260906122020 72 0 0.0 0.9 0.00 0.00 0.00 85 1015.1
20260906121539 73 0 0.0 0.9 0.00 0.00 0.00 84 1015.0
20260906120523 73 0 0.0 1.7 0.00 0.00 0.00 84 1014.8
20260906120045 72 0 0.0 1.7 0.00 0.00 0.00 85 1014.9
20260906114539 71 0 0.0 0.0 0.00 0.00 0.00 84 1014.6
20260906113042 72 0 0.0 0.0 0.00 0.00 0.00 84 1014.5
20260906112018 72 0 0.0 0.0 0.00 0.00 0.00 85 1014.4
20260906111551 72 0 0.0 0.0 0.00 0.00 0.00 84 1014.4
20260906111017 72 0 0.0 0.0 0.00 0.00 0.00 83 1014.4
20260906110520 72 0 0.0 0.0 0.00 0.00 0.00 83 1014.3
20260906110051 72 0 0.0 0.0 0.00 0.00 0.00 84 1014.3
20260906104540 73 0 0.0 0.0 0.00 0.00 0.00 83 1014.2
20260906103039 73 0 0.0 0.0 0.00 0.00 0.00 81 1014.1
20260906102520 73 0 0.0 0.0 0.00 0.00 0.00 80 1014.0
20260906101538 73 0 0.0 0.0 0.00 0.00 0.00 81 1014.1
20260906101017 73 0 0.0 0.0 0.00 0.00 0.00 81 1014.0
20260906100521 73 0 0.0 0.0 0.00 0.00 0.00 82 1014.0
20260906100036 73 0 0.0 0.0 0.00 0.00 0.00 81 1014.0
20260906095516 73 0 0.0 0.0 0.00 0.00 0.00 80 1014.0
20260906095018 74 0 0.0 0.0 0.00 0.00 0.00 79 1014.1
20260906094539 74 0 0.0 0.0 0.00 0.00 0.00 80 1014.1
20260906092517 74 0 0.0 0.0 0.00 0.00 0.00 79 1014.0
20260906092017 74 0 0.0 0.0 0.00 0.00 0.00 79 1013.9
20260906091538 74 0 0.0 0.0 0.00 0.00 0.00 79 1013.8
20260906091016 75 0 0.0 0.0 0.00 0.00 0.00 78 1013.7
20260906090515 75 0 0.0 0.0 0.00 0.00 0.00 78 1013.8
20260906085019 76 0 0.0 0.0 0.00 0.00 0.00 76 1013.8
20260906084018 76 0 0.0 0.0 0.00 0.00 0.00 76 1013.8
20260906083517 76 0 0.0 0.0 0.00 0.00 0.00 76 1013.9
20260906083042 76 0 0.0 0.0 0.00 0.00 0.00 76 1014.0
20260906082516 76 0 0.0 0.0 0.00 0.00 0.00 76 1013.8
20260906082017 76 0 0.0 0.0 0.00 0.00 0.00 76 1013.9
20260906081537 76 0 0.0 0.0 0.00 0.00 0.00 74 1013.9
20260906081020 77 0 0.0 0.0 0.00 0.00 0.00 74 1013.9
20260906075519 77 0 0.0 0.0 0.00 0.00 0.00 73 1013.7
20260906075018 78 0 0.0 1.7 0.00 0.00 0.00 72 1013.7
20260906074021 78 0 0.0 3.5 0.00 0.00 0.00 72 1013.9
20260906073518 78 0 0.0 3.5 0.00 0.00 0.00 72 1013.9
20260906073038 78 142 0.0 2.6 0.00 0.00 0.00 71 1013.9
20260906072518 79 147 0.9 3.5 0.00 0.00 0.00 71 1013.9
20260906072017 79 161 1.7 4.3 0.00 0.00 0.00 70 1014.0
20260906071537 79 161 0.9 4.3 0.00 0.00 0.00 70 1014.0
20260906071016 79 152 1.7 5.2 0.00 0.00 0.00 70 1014.1
20260906070041 79 0 0.9 4.3 0.00 0.00 0.00 69 1014.1
20260906065524 80 161 0.9 4.3 0.00 0.00 0.00 68 1014.2
20260906065021 80 155 1.7 4.3 0.00 0.00 0.00 68 1014.3
20260906064536 80 170 1.7 5.2 0.00 0.00 0.00 68 1014.3
20260906063040 80 159 0.9 3.5 0.00 0.00 0.00 67 1014.4
20260906061547 80 166 0.9 4.3 0.00 0.00 0.00 67 1014.9
20260906061020 80 156 0.9 4.3 0.00 0.00 0.00 67 1014.9
20260906060518 80 150 0.9 3.5 0.00 0.00 0.00 67 1014.8
20260906060042 80 0 0.0 2.6 0.00 0.00 0.00 66 1014.7
20260906055517 80 0 0.0 2.6 0.00 0.00 0.00 66 1014.7
20260906054544 81 0 0.0 2.6 0.00 0.00 0.00 65 1014.6
20260906053042 81 173 0.9 6.1 0.00 0.00 0.00 65 1014.5
20260906051540 81 171 0.9 3.5 0.00 0.00 0.00 65 1014.7
20260906051018 81 167 0.9 3.5 0.00 0.00 0.00 65 1014.6
20260906050519 81 130 0.9 5.2 0.00 0.00 0.00 65 1014.6
20260906050044 82 159 0.9 5.2 0.00 0.00 0.00 65 1014.7
20260906044540 82 148 0.9 4.3 0.00 0.00 0.00 64 1014.7
20260906043038 83 149 0.9 3.5 0.00 0.00 0.00 63 1014.8
20260906042520 83 159 0.9 4.3 0.00 0.00 0.00 63 1014.6
20260906042020 83 171 0.9 4.3 0.00 0.00 0.00 63 1014.6
20260906041548 83 158 0.9 4.3 0.00 0.00 0.00 63 1014.7
20260906041021 83 164 0.9 4.3 0.00 0.00 0.00 63 1014.6
20260906040042 83 126 0.9 3.5 0.00 0.00 0.00 62 1014.4
20260906034544 84 114 1.7 6.1 0.00 0.00 0.00 62 1014.4
20260906034023 84 156 1.7 6.1 0.00 0.00 0.00 61 1014.2
20260906033517 84 120 1.7 6.1 0.00 0.00 0.00 61 1014.3
20260906033036 84 115 2.6 6.1 0.00 0.00 0.00 61 1014.3
20260906032519 84 142 1.7 7.8 0.00 0.00 0.00 60 1014.3
20260906032020 85 127 2.6 8.7 0.00 0.00 0.00 60 1014.2
20260906031540 85 146 3.5 8.7 0.00 0.00 0.00 60 1014.1
20260906031016 85 119 2.6 8.7 0.00 0.00 0.00 59 1014.1
20260906030048 85 120 3.5 8.7 0.00 0.00 0.00 58 1014.0
20260906024537 86 158 2.6 10.4 0.00 0.00 0.00 56 1013.8
20260906024020 86 130 2.6 7.8 0.00 0.00 0.00 55 1013.7
20260906023520 86 117 3.5 8.7 0.00 0.00 0.00 54 1013.7
20260906023038 86 153 3.5 8.7 0.00 0.00 0.00 53 1013.6
20260906022517 86 144 3.5 7.0 0.00 0.00 0.00 52 1013.5
20260906022017 86 130 2.6 6.1 0.00 0.00 0.00 53 1013.4
20260906021539 84 100 0.9 5.2 0.00 0.00 0.00 53 1013.4
20260906021020 84 121 0.0 1.7 0.00 0.00 0.00 53 1013.3
20260906020042 85 0 0.0 2.6 0.00 0.00 0.00 52 1013.2
20260906014545 85 0 0.0 0.9 0.00 0.00 0.00 51 1013.0
20260906014020 86 0 0.0 0.9 0.00 0.00 0.00 51 1012.9
20260906013526 86 0 0.0 0.9 0.00 0.00 0.00 51 1012.8
20260906013036 86 0 0.0 1.7 0.00 0.00 0.00 50 1012.8
20260906011552 87 0 0.0 2.6 0.00 0.00 0.00 49 1012.7
20260906010524 87 0 0.0 0.9 0.00 0.00 0.00 48 1012.7
20260906010100 88 0 0.0 0.9 0.00 0.00 0.00 48 1012.7
20260906005517 88 0 0.0 0.9 0.00 0.00 0.00 47 1012.7
20260906005021 89 0 0.0 4.3 0.00 0.00 0.00 46 1012.6
20260906004545 90 0 0.0 4.3 0.00 0.00 0.00 45 1012.5
20260906003045 92 71 0.0 5.2 0.00 0.00 0.00 42 1012.4
20260906002018 93 126 1.7 7.0 0.00 0.00 0.00 41 1012.4
20260906001558 93 119 2.6 7.0 0.00 0.00 0.00 41 1012.3
20260906001022 93 101 0.9 7.0 0.00 0.00 0.00 40 1012.2
20260906000520 94 130 2.6 7.0 0.00 0.00 0.00 40 1012.1
20260906000039 94 101 2.6 7.0 0.00 0.00 0.00 39 1012.1
20260905235519 94 154 1.7 8.7 0.00 0.00 0.00 39 1012.3
20260905235022 95 117 1.7 8.7 0.00 0.00 0.00 39 1012.2
20260905234541 95 140 2.6 8.7 0.00 0.00 0.00 38 1012.2
20260905232522 97 114 1.7 7.8 0.00 0.00 0.00 36 1012.1
20260905231544 98 92 0.9 6.1 0.00 0.00 0.00 35 1012.0
20260905231020 97 130 2.6 6.1 0.00 0.00 0.00 35 1012.0
20260905230517 97 0 1.7 6.1 0.00 0.00 0.00 35 1012.1
20260905230044 98 139 0.9 5.2 0.00 0.00 0.00 35 1012.1
20260905224543 97 133 1.7 7.0 0.00 0.00 0.00 35 1012.1
20260905224021 98 140 2.6 7.0 0.00 0.00 0.00 34 1012.1